Regional Weather Roundup
Issued by NWS Goodland, KS

Home | Current Version | Previous Version | Text Only | Print | Product List | Glossary Off
Versions: 1 2 3 4 5 6 7 8 9 10 11 12 13 14 15 16 17 18 19 20 21 22 23 24 25 26 27 28 29 30 31 32 33 34 35 36 37 38 39 40 41 42 43 44 45 46 47 48 49 50

000
ASUS43 KGLD 300859
RWRGLD

GOODLAND FORECAST AREA HOURLY WEATHER ROUNDUP
NATIONAL WEATHER SERVICE GOODLAND KS
300 AM MDT SAT APR 30 2016

...OFFICIAL OBSERVATIONS...

CITY           SKY/WX    TMP DP  RH WIND       PRES   REMARKS
GOODLAND KS    CLOUDY    32  31  96 N14       29.79F
HILL CITY KS   LGT RAIN  42  41  96 N12       29.75F FOG
IMPERIAL NEB   LGT SNOW  33  32  96 N13       29.83F FOG
MCCOOK NEB     LGT RAIN  37  35  92 N12       29.80S FOG
AKRON CO       LGT SNOW  30  29  96 N15       29.83F FOG     WCI  19
BURLINGTON CO  CLOUDY    32  30  92 N16       29.80F FOG
LIMON CO       LGT SNOW  30  29  96 NW15      29.83S FOG     WCI  19
$$

...UNOFFICIAL OBSERVATIONS...

CITY           SKY/WX    TMP DP  RH WIND       PRES   REMARKS
COLBY KS       CLOUDY    34  34 100 NW13      29.80F FOG
GOVE KS          N/A     40  32  73 MISG        N/A
LENORA KS        N/A     41  32  70 MISG        N/A
NORTON KS      CLOUDY    39  37  93 N9G16     29.75S FOG
SHARON SPRINGS   N/A     33  32  97 NW12        N/A
TRIBUNE KS     CLOUDY    36  34  93 NW13      29.82F
KIT CARSON CO    N/A     32  30  92 MISG        N/A
YUMA CO          N/A     32  32  99 CALM        N/A
$$



USA.gov is the U.S. government's official web portal to all federal, state and local government web resources and services.